Regional Weather Roundup
Issued by NWS Lake Charles, LA

Home | Current Version | Previous Version | Text Only | Print | Product List | Glossary On
Versions: 1 2 3 4 5 6 7 8 9 10 11 12 13 14 15 16 17 18 19 20 21 22 23 24 25 26 27 28 29 30 31 32 33 34 35 36 37 38 39 40 41 42 43 44 45 46 47 48 49 50
000
ASUS44 KLCH 061610
RWRLCH
RWRLCH
REGIONAL WEATHER ROUNDUP
NATIONAL WEATHER SERVICE LAKE CHARLES LA
1000 AM CST FRI MAR 06 2015

Note: "fair" indicates few or no clouds below 12,000 feet with no
significant weather and/or obstructions to visibility.


ACROSS SOUTHEAST TEXAS

CITY           SKY/WX    TMP DP  RH WIND       PRES   REMARKS
BEAUMONT       SUNNY     41  16  36 NE16      30.59S
BEAUMONT CITY    N/A     39  19  43 N13G18    30.60S
ORANGE         SUNNY     40  18  41 N9        30.61S
JASPER         SUNNY     39  14  35 NE9G16    30.62F
$$

ACROSS CENTRAL LOUISIANA

CITY           SKY/WX    TMP DP  RH WIND       PRES   REMARKS
LEESVILLE      SUNNY     37  13  37 NE12G20   30.58F WCI  29
FULLERTON        N/A     41  11  29 NE10G20   30.57
ALEXANDRIA INT SUNNY     37  17  44 NE8       30.61S
ESLER FIELD    SUNNY     39  16  39 E10G16    30.60S
DERIDDER         N/A     38  13  35 N5G17     30.61S
OAKDALE        SUNNY     38  14  38 N9        30.60S
OPELOUSAS        N/A     36  16  43 NE16      30.58S WCI  27
$$

ACROSS SOUTHWEST AND SOUTH CENTRAL LOUISIANA

CITY           SKY/WX    TMP DP  RH WIND       PRES   REMARKS
SULPHUR        SUNNY     39  16  39 N16       30.59F WCI  30
LAKE CHARLES   SUNNY     39  17  41 NE17      30.58S WCI  30
CHENNAULT INT  SUNNY     37  16  41 NE17G23   30.59  WCI  28
CAMERON PHI    SUNNY     39  18  41 NE18G31   30.60S WCI  30
DEQUINCY         N/A     37  15  39 NE6       30.59F
JENNINGS         N/A     36  17  44 NE18      30.58S WCI  26
LAFAYETTE      SUNNY     38  12  34 NE17G26   30.57R WCI  28
NEW IBERIA     SUNNY    N/A N/A N/A MISG      30.56S
ABBEVILLE        N/A     39  14  35 N15       30.56S
PATTERSON      SUNNY     37  18  44 N16       30.53S WCI  28
SALT POINT       N/A     40  17  39 N9G17     30.50
$$

SELECTED SITES ACROSS THE REGION

CITY           SKY/WX    TMP DP  RH WIND       PRES   REMARKS
HOUSTON BUSH   PTSUNNY   42  20  41 NE9G18    30.62R
HOUSTON HOBBY  PTSUNNY   41  19  41 NE17G23   30.61S
GALVESTON      SUNNY     41  22  46 N22G29    30.61R
COLLEGE STAT   SUNNY     41  20  43 VRB5      30.63R
CONROE         SUNNY     40  20  44 NE10G17   30.62R
HUNTSVILLE     SUNNY     39  21  48 NE7       30.61R
LUFKIN         SUNNY     41  19  41 NE8       30.62R
SHREVEPORT     MOSUNNY   39  15  37 VRB5      30.61F
MONROE         SUNNY     34  19  54 NE9       30.65S WCI  27
NATCHEZ MS     NOT AVBL
BATON ROUGE    SUNNY     37  14  38 N9        30.56S
N.O. INTL ARPT PTSUNNY   39  23  52 N17G25    30.51S WCI  30
SLIDELL        SUNNY     40  18  41 N10G21    30.50S
$$

MARINE REPORTS

STATION/POSITION TIME  TEMP    WIND        PRES    VSBY  WAVE
                       AIR SEA DIR/SP/G                  HT/PER
                 (UTC) (F)     (DEG/KT/KT) (MB)    (MI)  (FT/S)
BUOY 30 S HIGH I 1600   40 58   40/ 21/ 27 1034.7R         6/ 5
SEA RIM ST PARK  1600   38      30/ 19/ 23 1036.2R
PORT ARTHUR      1600      54   30/  6/ 13 1036.0R
SABINE PASS N    1600   37 53   30/ 16/ 22 1036.1R
TEXAS POINT      NOT AVBL
CALCASIEU PASS   1600   36 52   50/ 17/ 22   N/A
LK CHARLES BEACH 1600   36                 1036.0F
MARSH ISLAND     1500   35      30/ 16/ 20   N/A           0
FRESH WATER LOCK 1600   36 52  360/ 15/ 19 1033.8S
AMERADA PASS     1600           20/  9/ 14   N/A
$$


USA.gov is the U.S. government's official web portal to all federal, state and local government web resources and services.